KC8RFE-1 Weather Reports


time (UTC)temp
F
wind
direction
speed
knots
gust
knots
rain 1hr
in
rain 24hr
in
rain mn
in
humidity
%
barometer
mb
20260906113637 68 46 5.2 7.8 0.00 0.00 0.00 8 992.1
20260906113137 68 45 6.1 7.8 0.00 0.00 0.00 8 992.1
20260906112637 68 55 6.1 7.8 0.00 0.00 0.00 8 992.1
20260906112137 69 43 6.1 10.4 0.00 0.00 0.00 8 992.1
20260906111637 69 49 6.1 9.6 0.00 0.00 0.00 8 991.9
20260906111137 69 45 7.0 7.8 0.00 0.00 0.00 8 991.9
20260906110637 69 59 6.1 6.1 0.00 0.00 0.00 8 991.9
20260906110137 69 52 6.1 8.7 0.00 0.00 0.00 8 991.7
20260906105637 69 52 7.0 9.6 0.00 0.00 0.00 8 991.7
20260906105137 69 49 6.1 7.8 0.00 0.00 0.00 8 991.4
20260906104637 69 49 7.0 9.6 0.00 0.00 0.00 8 991.4
20260906104138 69 70 6.1 7.8 0.00 0.00 0.00 8 991.5
20260906103638 69 49 6.1 7.8 0.00 0.00 0.00 8 991.6
20260906103138 70 37 7.0 11.3 0.00 0.00 0.00 8 991.6
20260906102638 70 54 8.7 11.3 0.00 0.00 0.00 8 991.4
20260906102138 70 39 9.6 11.3 0.00 0.00 0.00 8 991.4
20260906101638 70 42 7.8 11.3 0.00 0.00 0.00 8 991.4
20260906101138 70 52 7.8 11.3 0.00 0.00 0.00 8 991.4
20260906100638 70 43 8.7 11.3 0.00 0.00 0.00 8 991.4
20260906100138 70 64 7.0 11.3 0.00 0.00 0.00 8 991.4
20260906095638 70 54 8.7 11.3 0.00 0.00 0.00 8 991.4
20260906095138 70 57 7.8 9.6 0.00 0.00 0.00 8 991.4
20260906094638 70 52 7.8 12.2 0.00 0.00 0.00 8 991.4
20260906094138 71 58 8.7 13.9 0.00 0.00 0.00 8 991.4
20260906093638 71 60 9.6 13.9 0.00 0.00 0.00 8 991.4
20260906093138 71 43 7.0 9.6 0.00 0.00 0.00 8 991.4
20260906092638 71 51 7.0 12.2 0.00 0.00 0.00 8 991.2
20260906092138 71 41 7.8 12.2 0.00 0.00 0.00 8 991.2
20260906091638 71 46 6.1 7.8 0.00 0.00 0.00 8 991.6
20260906091138 71 30 7.0 9.6 0.00 0.00 0.00 8 991.6
20260906090637 71 44 5.2 7.8 0.00 0.00 0.00 8 991.6
20260906090138 71 31 5.2 7.8 0.00 0.00 0.00 8 991.4
20260906085637 71 27 4.3 7.8 0.00 0.00 0.00 8 991.4
20260906085137 71 39 3.5 5.2 0.00 0.00 0.00 8 991.4
20260906084637 71 55 5.2 7.0 0.00 0.00 0.00 8 991.4
20260906084137 71 28 5.2 7.8 0.00 0.00 0.00 8 991.5
20260906083637 71 41 4.3 6.1 0.00 0.00 0.00 8 991.6
20260906083137 71 39 4.3 6.1 0.00 0.00 0.00 8 991.5
20260906082637 71 35 4.3 6.1 0.00 0.00 0.00 8 991.4
20260906082137 72 40 3.5 5.2 0.00 0.00 0.00 7 991.4
20260906081637 72 31 4.3 6.1 0.00 0.00 0.00 7 991.2
20260906081137 72 29 4.3 7.0 0.00 0.00 0.00 7 991.2
20260906080637 72 26 3.5 5.2 0.00 0.00 0.00 7 991.0
20260906080137 72 39 3.5 6.1 0.00 0.00 0.00 7 990.9
20260906075637 72 45 3.5 6.1 0.00 0.00 0.00 7 991.0
20260906075137 72 39 4.3 7.0 0.00 0.00 0.00 7 991.1
20260906074637 72 30 4.3 6.1 0.00 0.00 0.00 7 991.1
20260906074137 72 34 4.3 5.2 0.00 0.00 0.00 7 991.2
20260906073637 72 40 4.3 7.0 0.00 0.00 0.00 7 991.2
20260906073137 72 52 5.2 7.8 0.00 0.00 0.00 7 991.2
20260906072637 72 50 5.2 7.0 0.00 0.00 0.00 7 991.2
20260906072137 72 32 6.1 8.7 0.00 0.00 0.00 7 991.2
20260906071637 72 41 6.1 7.8 0.00 0.00 0.00 7 991.4
20260906071137 72 54 6.1 9.6 0.00 0.00 0.00 7 991.4
20260906070637 0 45 6.1 6.1 0.00 0.00 0.00 100
20260906070137 72 43 6.1 7.8 0.00 0.00 0.00 7 991.4
20260906065637 72 42 7.0 8.7 0.00 0.00 0.00 7 991.4
20260906065137 72 38 6.1 7.8 0.00 0.00 0.00 7 991.7
20260906064637 72 36 6.1 7.8 0.00 0.00 0.00 7 991.7
20260906064137 72 31 5.2 7.0 0.00 0.00 0.00 7 991.6
20260906063637 71 45 5.2 7.8 0.00 0.00 0.00 7 991.6
20260906063137 71 33 5.2 7.0 0.00 0.00 0.00 7 991.6
20260906062638 71 37 5.2 7.0 0.00 0.00 0.00 7 991.7
20260906062138 71 33 6.1 8.7 0.00 0.00 0.00 7 991.7
20260906061638 71 32 5.2 7.0 0.00 0.00 0.00 7 991.5
20260906061138 71 50 6.1 7.8 0.00 0.00 0.00 7 991.4
20260906060638 71 42 5.2 7.0 0.00 0.00 0.00 7 991.4
20260906060138 71 47 5.2 7.0 0.00 0.00 0.00 7 991.4
20260906055638 71 37 5.2 7.8 0.00 0.00 0.00 7 991.4
20260906055138 71 39 7.0 8.7 0.00 0.00 0.00 7 991.2
20260906054638 71 37 7.0 8.7 0.00 0.00 0.00 7 991.2
20260906054138 71 32 6.1 7.8 0.00 0.00 0.00 7 991.1
20260906053638 71 39 7.0 7.8 0.00 0.00 0.00 7 991.1
20260906053138 71 36 6.1 8.7 0.00 0.00 0.00 7 991.1
20260906052638 71 42 7.0 8.7 0.00 0.00 0.00 7 991.2
20260906052138 71 47 5.2 7.0 0.00 0.00 0.00 7 991.2
20260906051638 71 37 6.1 7.8 0.00 0.00 0.00 7 991.2
20260906051138 71 39 5.2 8.7 0.00 0.00 0.00 7 991.2
20260906050638 71 38 6.1 7.8 0.00 0.00 0.00 7 991.2
20260906050138 71 42 6.1 10.4 0.00 0.00 0.00 7 991.2
20260906045637 71 27 7.0 9.6 0.00 0.00 0.00 7 991.2
20260906045138 71 29 7.0 10.4 0.00 0.00 0.00 7 990.9
20260906044637 71 27 7.0 11.3 0.00 0.00 0.00 7 990.9
20260906044137 71 45 7.0 10.4 0.00 0.00 0.00 7 991.1
20260906043637 71 56 7.0 8.7 0.00 0.00 0.00 7 991.1
20260906043137 71 25 7.0 13.0 0.00 0.00 0.00 7 991.0
20260906042637 71 41 7.0 11.3 0.00 0.00 0.00 7 990.9
20260906042137 72 22 7.0 7.0 0.00 0.00 0.00 7 990.9
20260906041637 72 70 7.8 10.4 0.00 0.00 0.00 7 990.9
20260906041137 72 56 7.8 11.3 0.00 0.00 0.00 7 990.9
20260906040637 72 42 6.1 9.6 0.00 0.00 0.00 7 990.9
20260906040137 72 51 7.8 11.3 0.00 0.00 0.00 7 990.9
20260906035637 72 36 8.7 12.2 0.00 0.00 0.00 7 990.9
20260906035137 72 45 7.8 10.4 0.00 0.00 0.00 7 990.9
20260906034637 72 32 9.6 10.4 0.00 0.00 0.00 7 990.9
20260906034137 72 50 7.0 10.4 0.00 0.00 0.00 7 990.9
20260906033637 72 38 7.8 11.3 0.00 0.00 0.00 7 990.9
20260906033137 72 47 8.7 9.6 0.00 0.00 0.00 7 990.8
20260906032637 73 68 6.1 8.7 0.00 0.00 0.00 7 990.7
20260906032137 73 33 7.8 10.4 0.00 0.00 0.00 7 990.7
20260906031637 73 31 8.7 11.3 0.00 0.00 0.00 7 990.6
20260906031137 73 25 7.8 11.3 0.00 0.00 0.00 7 990.6
20260906030637 73 36 9.6 13.0 0.00 0.00 0.00 7 990.5
20260906030137 73 50 9.6 13.0 0.00 0.00 0.00 7 990.4
20260906025637 74 50 9.6 12.2 0.00 0.00 0.00 6 990.4
20260906025137 74 54 8.7 10.4 0.00 0.00 0.00 6 990.4
20260906024637 74 56 8.7 12.2 0.00 0.00 0.00 6 990.4
20260906024137 74 39 8.7 11.3 0.00 0.00 0.00 6 990.4
20260906023637 74 41 9.6 11.3 0.00 0.00 0.00 6 990.4
20260906023137 75 0 8.7 8.7 0.00 0.00 0.00 6 990.4
20260906022637 75 36 9.6 13.0 0.00 0.00 0.00 6 990.4
20260906022138 75 36 10.4 13.9 0.00 0.00 0.00 6 990.4
20260906021638 75 25 8.7 11.3 0.00 0.00 0.00 6 990.2
20260906021138 76 42 7.8 11.3 0.00 0.00 0.00 6 990.2
20260906020638 76 45 9.6 13.0 0.00 0.00 0.00 6 990.2
20260906020138 76 63 8.7 10.4 0.00 0.00 0.00 6 990.2
20260906015638 76 30 7.0 9.6 0.00 0.00 0.00 6 990.2
20260906015138 77 26 6.1 8.7 0.00 0.00 0.00 6 989.9
20260906014638 77 46 7.0 11.3 0.00 0.00 0.00 6 989.9
20260906014138 77 40 8.7 11.3 0.00 0.00 0.00 6 989.9
20260906013638 77 40 11.3 15.6 0.00 0.00 0.00 6 989.9
20260906013138 78 26 10.4 13.9 0.00 0.00 0.00 6 989.8
20260906012638 78 34 7.8 9.6 0.00 0.00 0.00 6 989.7
20260906012138 79 36 7.0 9.6 0.00 0.00 0.00 6 989.7
20260906011638 79 31 7.8 10.4 0.00 0.00 0.00 6 989.6
20260906011138 79 36 7.0 11.3 0.00 0.00 0.00 6 989.6
20260906010638 80 33 7.8 8.7 0.00 0.00 0.00 6 989.4
20260906010138 80 34 10.4 13.0 0.00 0.00 0.00 6 989.2
20260906005638 80 42 7.8 9.6 0.00 0.00 0.00 6 989.2
20260906005137 80 42 7.8 10.4 0.00 0.00 0.00 6 989.2
20260906004637 81 36 7.0 9.6 0.00 0.00 0.00 6 989.2
20260906004137 81 28 7.0 13.0 0.00 0.00 0.00 6 989.2
20260906003637 81 27 7.8 10.4 0.00 0.00 0.00 6 989.2
20260906003137 82 45 8.7 9.6 0.00 0.00 0.00 6 989.1
20260906002637 82 29 8.7 14.8 0.00 0.00 0.00 6 989.0
20260906002137 82 29 7.8 10.4 0.00 0.00 0.00 6 989.0
20260906001637 83 37 8.7 12.2 0.00 0.00 0.00 6 989.0
20260906001137 83 39 7.0 10.4 0.00 0.00 0.00 6 989.0
20260906000637 84 39 12.2 13.9 0.00 0.00 0.00 6 989.0
20260906000137 84 30 8.7 11.3 0.00 0.00 0.00 6 988.9
20260905235637 85 44 11.3 14.8 0.00 0.00 0.00 6 988.9
20260905235137 85 25 10.4 13.9 0.00 0.00 0.00 6 988.9
20260905234637 86 36 9.6 17.4 0.00 0.00 0.00 5 988.9
20260905234137 87 29 10.4 15.6 0.00 0.00 0.00 5 988.7
20260905233637 89 34 6.1 12.2 0.00 0.00 0.00 5 988.7
20260905233137 90 20 3.5 7.0 0.00 0.00 0.00 5 988.6
20260905232637 90 335 2.6 4.3 0.00 0.00 0.00 5 988.5
20260905232137 91 347 4.3 7.0 0.00 0.00 0.00 5 988.5
20260905231637 92 11 3.5 7.0 0.00 0.00 0.00 5 988.4
20260905231137 93 35 3.5 7.0 0.00 0.00 0.00 5 988.4
20260905230637 94 18 2.6 4.3 0.00 0.00 0.00 5 988.3
20260905230137 94 316 2.6 4.3 0.00 0.00 0.00 5 988.2
20260905225637 95 0 3.5 6.1 0.00 0.00 0.00 5 988.2
20260905225137 95 258 1.7 2.6 0.00 0.00 0.00 5 988.2
20260905224637 94 14 1.7 3.5 0.00 0.00 0.00 5 988.2
20260905224137 94 326 3.5 7.8 0.00 0.00 0.00 5 988.4
20260905223637 94 28 3.5 7.0 0.00 0.00 0.00 5 988.4
20260905223137 95 334 3.5 6.1 0.00 0.00 0.00 5 988.4
20260905222637 94 337 2.6 7.0 0.00 0.00 0.00 5 988.4
20260905222138 95 349 4.3 7.0 0.00 0.00 0.00 5 988.4
20260905221638 94 313 2.6 4.3 0.00 0.00 0.00 5 988.4
20260905221138 94 23 7.0 9.6 0.00 0.00 0.00 5 988.4
20260905220638 95 1 3.5 6.1 0.00 0.00 0.00 5 988.3
20260905220138 95 316 1.7 3.5 0.00 0.00 0.00 5 988.2
20260905215638 96 18 3.5 7.0 0.00 0.00 0.00 5 988.2
20260905215138 96 316 2.6 5.2 0.00 0.00 0.00 5 988.2
20260905214638 95 30 4.3 9.6 0.00 0.00 0.00 5 988.2
20260905214138 96 22 5.2 8.7 0.00 0.00 0.00 5 988.2
20260905213638 97 27 4.3 7.0 0.00 0.00 0.00 5 988.2
20260905213138 97 358 4.3 7.8 0.00 0.00 0.00 5 988.2
20260905212638 97 342 1.7 6.1 0.00 0.00 0.00 5 988.4
20260905212138 97 0 3.5 5.2 0.00 0.00 0.00 5 988.4
20260905211638 97 292 2.6 4.3 0.00 0.00 0.00 5 988.4
20260905211138 96 326 2.6 5.2 0.00 0.00 0.00 5 988.4
20260905210638 97 28 5.2 7.0 0.00 0.00 0.00 5 988.4
20260905210137 98 344 2.6 6.1 0.00 0.00 0.00 5 988.4
20260905205638 97 316 3.5 5.2 0.00 0.00 0.00 5 988.4
20260905205137 97 19 3.5 7.0 0.00 0.00 0.00 5 988.4
20260905204637 97 2 3.5 5.2 0.00 0.00 0.00 5 988.4
20260905204137 97 22 3.5 5.2 0.00 0.00 0.00 5 988.5
20260905203637 97 18 3.5 7.0 0.00 0.00 0.00 5 988.5
20260905203137 97 27 4.3 6.1 0.00 0.00 0.00 5 988.5
20260905202637 98 5 2.6 5.2 0.00 0.00 0.00 5 988.5
20260905202137 98 315 1.7 3.5 0.00 0.00 0.00 5 988.5
20260905201637 98 331 2.6 5.2 0.00 0.00 0.00 5 988.4
20260905201137 100 273 2.6 4.3 0.00 0.00 0.00 4 988.4
20260905200637 101 319 1.7 3.5 0.00 0.00 0.00 4 988.5
20260905200137 102 244 2.6 3.5 0.00 0.00 0.00 4 988.5
20260905195637 102 280 3.5 5.2 0.00 0.00 0.00 4 988.5
20260905195137 102 321 3.5 5.2 0.00 0.00 0.00 4 988.5
20260905194637 102 350 2.6 5.2 0.00 0.00 0.00 4 988.5
20260905194137 102 358 2.6 5.2 0.00 0.00 0.00 4 988.7
20260905193637 101 310 2.6 5.2 0.00 0.00 0.00 4 988.7
20260905193137 101 247 3.5 7.0 0.00 0.00 0.00 4 988.7
20260905192637 101 273 3.5 5.2 0.00 0.00 0.00 4 988.9
20260905192137 101 321 2.6 5.2 0.00 0.00 0.00 4 988.9
20260905191637 102 9 4.3 6.1 0.00 0.00 0.00 4 988.9
20260905191137 102 3 3.5 8.7 0.00 0.00 0.00 4 988.9
20260905190637 103 289 2.6 3.5 0.00 0.00 0.00 4 989.0
20260905190137 102 23 2.6 4.3 0.00 0.00 0.00 4 989.0
20260905185637 103 15 3.5 7.0 0.00 0.00 0.00 4 989.1
20260905185137 102 243 1.7 3.5 0.00 0.00 0.00 4 989.2
20260905184637 102 2 2.6 4.3 0.00 0.00 0.00 4 989.2
20260905184137 101 359 2.6 3.5 0.00 0.00 0.00 4 989.2
20260905183637 102 259 2.6 4.3 0.00 0.00 0.00 4 989.2
20260905183137 102 279 1.7 1.7 0.00 0.00 0.00 4 989.2
20260905182638 101 264 3.5 7.8 0.00 0.00 0.00 4 989.2
20260905182138 101 288 2.6 4.3 0.00 0.00 0.00 4 989.2
20260905181638 99 327 2.6 6.1 0.00 0.00 0.00 4 989.4
20260905181138 98 350 2.6 7.0 0.00 0.00 0.00 4 989.4
20260905180638 98 334 1.7 3.5 0.00 0.00 0.00 4 989.4
20260905180138 98 339 2.6 5.2 0.00 0.00 0.00 4 989.4
20260905175638 99 3 3.5 7.0 0.00 0.00 0.00 4 989.4
20260905175138 99 282 2.6 4.3 0.00 0.00 0.00 4 989.4
20260905174638 99 351 3.5 5.2 0.00 0.00 0.00 4 989.4
20260905174138 99 267 2.6 3.5 0.00 0.00 0.00 4 989.4
20260905173638 99 265 2.6 5.2 0.00 0.00 0.00 4 989.4
20260905173138 99 254 3.5 5.2 0.00 0.00 0.00 4 989.4
20260905172638 98 257 3.5 7.0 0.00 0.00 0.00 4 989.5
20260905172138 99 277 3.5 6.1 0.00 0.00 0.00 4 989.5
20260905171638 101 271 4.3 8.7 0.00 0.00 0.00 4 989.6
20260905171138 100 61 2.6 5.2 0.00 0.00 0.00 4 989.7
20260905170638 100 261 3.5 6.1 0.00 0.00 0.00 4 989.7
20260905170138 100 261 3.5 5.2 0.00 0.00 0.00 4 989.9
20260905165638 100 257 3.5 7.8 0.00 0.00 0.00 4 989.9
20260905165137 100 279 3.5 5.2 0.00 0.00 0.00 4 989.9
20260905164638 99 254 3.5 7.8 0.00 0.00 0.00 4 989.9
20260905164137 99 265 3.5 8.7 0.00 0.00 0.00 4 989.8
20260905163637 100 275 2.6 6.1 0.00 0.00 0.00 4 989.7
20260905163137 99 259 3.5 8.7 0.00 0.00 0.00 4 989.7
20260905162637 99 250 3.5 6.1 0.00 0.00 0.00 4 989.7
20260905162137 98 261 1.7 3.5 0.00 0.00 0.00 5 989.7
20260905161637 96 267 3.5 5.2 0.00 0.00 0.00 5 989.7
20260905161137 96 269 5.2 7.8 0.00 0.00 0.00 5 989.7
20260905160637 96 260 3.5 5.2 0.00 0.00 0.00 5 989.7
20260905160137 97 273 2.6 4.3 0.00 0.00 0.00 5 989.9
20260905155637 98 283 4.3 6.1 0.00 0.00 0.00 4 989.9
20260905155137 99 276 2.6 5.2 0.00 0.00 0.00 5 989.7
20260905154637 98 273 2.6 5.2 0.00 0.00 0.00 5 989.7
20260905154137 0 225 2.6 2.6 0.00 0.00 0.00 100
20260905153637 97 270 4.3 6.1 0.00 0.00 0.00 5 989.7
20260905153137 98 272 2.6 3.5 0.00 0.00 0.00 5 989.6
20260905152637 97 275 2.6 3.5 0.00 0.00 0.00 5 989.5
20260905152137 97 280 2.6 3.5 0.00 0.00 0.00 5 989.5
20260905151637 97 271 1.7 4.3 0.00 0.00 0.00 5 989.4
20260905151137 96 277 2.6 3.5 0.00 0.00 0.00 5 989.4
20260905150637 96 274 3.5 6.1 0.00 0.00 0.00 5 989.4
20260905150137 96 274 3.5 5.2 0.00 0.00 0.00 5 989.4
20260905145637 97 271 2.6 4.3 0.00 0.00 0.00 5 989.4
20260905145137 97 279 1.7 3.5 0.00 0.00 0.00 5 989.4
20260905144637 96 280 2.6 4.3 0.00 0.00 0.00 5 989.4
20260905144308 95 293 1.7 3.5 0.00 0.00 0.00 5 989.7
20260905144137 95 293 1.7 3.5 0.00 0.00 0.00 5 989.7
20260905143637 93 293 1.7 2.6 0.00 0.00 0.00 5 989.7
20260905143308 92 270 3.5 4.3 0.00 0.00 0.00 5 989.7
20260905143137 92 270 3.5 4.3 0.00 0.00 0.00 5 989.7
20260905142638 91 268 2.6 4.3 0.00 0.00 0.00 5 989.7
20260905142309 91 270 3.5 5.2 0.00 0.00 0.00 5 989.7
20260905142138 91 270 3.5 5.2 0.00 0.00 0.00 5 989.7
20260905141638 91 267 3.5 4.3 0.00 0.00 0.00 5 989.7
20260905141310 91 270 2.6 4.3 0.00 0.00 0.00 5 989.7
20260905141138 91 270 2.6 4.3 0.00 0.00 0.00 5 989.7
20260905140638 92 272 3.5 4.3 0.00 0.00 0.00 5 989.7
20260905140309 91 299 0.9 1.7 0.00 0.00 0.00 5 989.7
20260905140138 91 299 0.9 1.7 0.00 0.00 0.00 5 989.7
20260905135638 88 341 1.7 4.3 0.00 0.00 0.00 5 989.7
20260905135138 87 270 3.5 4.3 0.00 0.00 0.00 6 989.5
20260905134638 86 270 2.6 3.5 0.00 0.00 0.00 6 989.5
20260905134309 85 270 3.5 4.3 0.00 0.00 0.00 6 989.7
20260905134138 85 270 3.5 4.3 0.00 0.00 0.00 6 989.7
20260905133638 85 270 3.5 5.2 0.00 0.00 0.00 6 989.7
20260905133138 85 267 4.3 5.2 0.00 0.00 0.00 6 989.7
20260905132638 85 267 3.5 4.3 0.00 0.00 0.00 6 989.7
20260905132138 85 266 3.5 5.2 0.00 0.00 0.00 6 989.7
20260905131638 84 270 3.5 4.3 0.00 0.00 0.00 6 989.7
20260905131138 85 269 3.5 4.3 0.00 0.00 0.00 6 989.7
20260905130638 85 268 2.6 3.5 0.00 0.00 0.00 6 989.7
20260905130138 84 270 2.6 4.3 0.00 0.00 0.00 6 989.7
20260905125638 84 272 2.6 3.5 0.00 0.00 0.00 6 989.7
20260905125137 84 273 2.6 3.5 0.00 0.00 0.00 6 989.4
20260905124637 84 270 1.7 3.5 0.00 0.00 0.00 6 989.4
20260905124137 83 272 1.7 2.6 0.00 0.00 0.00 6 989.4
20260905123637 82 271 0.9 1.7 0.00 0.00 0.00 6 989.4
20260905123137 81 270 1.7 2.6 0.00 0.00 0.00 6 989.4
20260905122637 81 270 1.7 1.7 0.00 0.00 0.00 6 989.4
20260905122137 81 270 1.7 1.7 0.00 0.00 0.00 7 989.4
20260905121637 80 0 0.0 0.0 0.00 0.00 0.00 7 989.2
20260905121137 79 0 0.0 0.0 0.00 0.00 0.00 7 989.2
20260905120637 78 0 0.0 0.0 0.00 0.00 0.00 7 989.2
20260905120137 77 0 0.0 0.0 0.00 0.00 0.00 7 989.2
20260905115637 77 270 0.0 0.9 0.00 0.00 0.00 7 989.2
20260905115137 77 270 0.0 1.7 0.00 0.00 0.00 7 989.2
20260905114637 77 0 0.0 0.0 0.00 0.00 0.00 7 989.2
20260905114137 76 270 0.0 1.7 0.00 0.00 0.00 7 989.2